Regional Weather Roundup
Issued by NWS Austin/San Antonio, TX

Home | Current Version | Previous Version | Text Only | Print | Product List | Glossary On
Versions: 1 2 3 4 5 6 7 8 9 10 11 12 13 14 15 16 17 18 19 20 21 22 23 24 25 26 27 28 29 30 31 32 33 34 35 36 37 38 39 40 41 42 43 44 45 46 47 48 49 50
321
ASUS44 KEWX 221102
RWREWX
SOUTH TEXAS REGIONAL WEATHER ROUNDUP
NATIONAL WEATHER SERVICE AUSTIN/SAN ANTONIO TX
600 AM CDT MON MAY 22 2017

NOTE: "FAIR" INDICATED FEW OR NO CLOUDS BELOW 12,000 FEET WITH NO
SIGNIFICANT WEATHER AND/OR OBSTRUCTIONS TO VISIBILITY.

* - THESE STATIONS ARE NOT NWS OR FAA STATIONS...AND ARE NOT SUBJECT
    TO NWS AND FAA QUALITY CONTROL.

TXZ171-172-183>190-221200-
TEXAS HILL COUNTRY AND EDWARDS PLATEAU

CITY           SKY/WX    TMP DP  RH WIND       PRES   REMARKS
JUNCTION       CLOUDY    58  58 100 E7        30.06F FOG
*LLANO         CLOUDY    61  59  94 CALM      30.11S
BURNET         CLOUDY    58  55  90 NE10      30.08S
*HORSESHOE BAY NOT AVBL
*KERRVILLE     CLOUDY    61  59  94 CALM      30.04F
*FREDERICKSBRG CLOUDY    60  57  91 E5        30.05F
*ROCKSPRINGS   FOG       61  61 100 E6        30.08S VSB 1/2
*BOERNE STAGE  CLOUDY    61  59  94 N3        30.03F
*CASTROVILLE   CLOUDY    65  63  94 NE3       30.01F
HONDO          CLOUDY    66  63  90 N7        29.99F
*UVALDE        CLOUDY    65  63  95 CALM      30.00F
DEL RIO        LGT RAIN  65  64  97 CALM      30.00S
LAUGHLIN AFB   LGT RAIN  66  62  86 N7        30.00S FOG
CARRIZO SPRGS  CLOUDY    64  64 100 NE3       29.97S
*EAGLE PASS    NOT AVBL
$$

TXZ173-191>194-202-209-217>225-228-221200-
CENTRAL AND SOUTH CENTRAL TEXAS

CITY           SKY/WX    TMP DP  RH WIND       PRES   REMARKS
GEORGETOWN     CLOUDY    61  54  77 N12       30.05S
AUSTIN/BERGSTM LGT RAIN  63  61  93 N7        30.01S FOG
AUSTIN/MABRY   CLOUDY    63  59  87 N7        30.03F
*AUSTIN/EXEC   CLOUDY    59  59 100 N13       30.03S
*LAGO VISTA    LGT RAIN  60  59  97 NE12G17   30.04S
SAN MARCOS     CLOUDY    63  61  94 N3        30.02S
NEW BRAUNFELS  CLOUDY    64  62  93 NE7       29.99F
RANDOLPH AFB   CLOUDY    64  64 100 NE9       29.98F
PT SAN ANTONIO CLOUDY    65  62  91 N10       29.96F
SAN ANTONIO    CLOUDY    64  61  90 N12       29.99F
STINSON FIELD  CLOUDY    66  62  87 N9        29.96F
*LA GRANGE     CLOUDY    66  65  96 N5        29.96F FOG
*GIDDINGS      CLOUDY    63  62  94 N8        30.00S
*GONZALES      RAIN      64  64 100 CALM      29.99R
$$

TXZ163>164-176>182-195>201-210>213-226-227-235-221200-
SOUTHEAST TEXAS

CITY           SKY/WX    TMP DP  RH WIND       PRES   REMARKS
COLLEGE STN    LGT RAIN  64  63  96 NW16      30.00R
*BRYAN         LGT RAIN  62  62 100 N12G17    30.01S
*CALDWELL      NOT AVBL
*CROCKETT      HVY RAIN  63  63 100 NE12      30.05S
*BRENHAM       CLOUDY    69  67  93 N6        29.98F
HUNTSVILLE     RAIN      67  65  93 VRB5      30.00S FOG
CONROE         CLOUDY    70  69  97 E6        29.97F FOG
HOUSTON BUSH   CLOUDY    72  70  93 E10       29.96F
HOUSTON HOBBY  CLOUDY    75  70  84 SE12G18   29.95S
*HOUSTON SW AP TSTM      72  70  91 SE14G24   29.94F
PEARLAND       RAIN      75  70  84 E6        29.96S
HOUSTON HOOKS  CLOUDY    72  70  93 E7        29.96F
ELLINGTON FLD  NOT AVBL
SUGAR LAND     CLOUDY    75  72  90 S9        29.97R THUNDER
*HOUSTON EXEC  CLOUDY    72  72 100 E3        29.97R FOG
*CLEVELAND MUN CLOUDY    70  69  96 CALM      30.00S
*WHARTON       CLOUDY    72  70  92 E7        29.94F
*COLUMBUS      LGT RAIN  69  67  94 CALM      29.97S
*EAGLE LAKE    CLOUDY    73  72  98 CALM      29.96R
$$

TXZ214>216-236>238-221200-
THE UPPER TEXAS COAST

CITY           SKY/WX    TMP DP  RH WIND       PRES   REMARKS
*ORANGE        CLOUDY    73  72  94 CALM      30.01R
PORT ARTHUR    CLOUDY    74  69  85 SE10G16   29.97S
GALVESTON      HVY RAIN  75  73  93 E25G37    29.96S FOG
ANGLETON       RAIN      76  74  93 SE12      29.94S
*BAY CITY      RAIN      74  73  97 E5        29.93F
PALACIOS       HVY RAIN  72  72 100 E8        29.94R FOG
$$

TXZ229>234-239>247-221200-
TEXAS COASTAL BEND AND RIO GRANDE PLAINS

CITY           SKY/WX    TMP DP  RH WIND       PRES   REMARKS
VICTORIA       HVY RAIN  69  67  93 NW16      29.98R FOG
*BEEVILLE      CLOUDY   N/A N/A N/A NE7       29.93F
ROCKPORT       LGT RAIN  72  69  90 NW28G43   29.90R
*PORT ARANSAS  RAIN      79  77  94 S13       29.88F
*PORT LAVACA   HVY RAIN  71  71 100 CALM      29.94F
*INGLESIDE     CLOUDY    74  72  93 N24G35    29.90F
CORPUS CHRISTI LGT RAIN  70  69  97 N15       29.91S
CORPUS NAS     LGT RAIN  76  74  93 N22G31    29.89S FOG
*ROBSTOWN      LGT RAIN  71  71 100 N12       29.93S
ALICE          CLOUDY    69  67  93 N10       29.92S
KINGSVILLE NAS NOT AVBL
COTULLA        CLOUDY    67  65  93 NE8       29.97S
*FAITH RANCH   CLOUDY    68  66  94 N5        29.98S
LAREDO         NOT AVBL
$$

TXZ248>255-221200-
DEEP SOUTH TEXAS

CITY           SKY/WX    TMP DP  RH WIND       PRES   REMARKS
BROWNSVILLE    PTCLDY    81  76  84 SE10      29.86F
PORT ISABEL    CLOUDY    80  77  90 S7        29.87F
*SOUTH PADRE   NOT AVBL
HARLINGEN      PTCLDY    78  78 100 SE5       29.87S
*HEBBRONVILLE  CLOUDY    68  67  97 N6        29.94F FOG
MCALLEN        LGT RAIN  81  78  91 SE3       29.89F FOG
*WESLACO       CLOUDY    79  76  91 SW5       29.88S
FALFURRIAS     CLOUDY    74  72  95 NW7       29.91R
EDINBURG       LGT RAIN  81  77  89 S3        29.88F
*ZAPATA        NOT AVBL
$$

TXZ213>215-236>238-242>244-246-247-251-254-255-221200-
CMAN STATIONS

STATION/POSITION TIME  TEMP    WIND        PRES    WAVE
                       AIR SEA DIR/SP/G            HT/PER
                 (UTC) (F)     (DEG/KT/KT) (MB)    (FT/S)
SABINE PASS      1030   76 83  150/ 16/ 22 1016.3
SEA RIM ST PARK  1000   75     140/ 22/ 27 1015.6
NORTH JETTY/GLS  1030      80  120/ 32/ 37 1013.9
EAGLE POINT      1030   77 80  150/ 21/ 27 1013.9
MORGANS POINT    1030   76 81  110/ 15/ 20 1014.5
MISSION/ARANSAS  1000   76                 1013.0
PORT O`CONNOR    1030   73      20/ 12/ 14 1014.1
PORT ARANSAS     1000   80 81  190/ 16/ 17 1011.8
MALAQUITE BEACH  1030   80 82  190/ 15/ 17 1012.5
BAFFIN BAY       1030   80 82              1012.2
PORT ISABEL      1030   80 84  150/ 13/ 20 1011.3
$$




USA.gov is the U.S. government's official web portal to all federal, state and local government web resources and services.